Newton, KS

3:57 AM CDT on September 22, 2019 (GMT -0500)
Newton City County

Weather History for KEWK - July, 2019

Change the Weather History Date:

Tuesday, July 23, 2019

  Actual Average Record
Temperature  
Mean Temperature 70 °F -  
Max Temperature 82 °F 88 °F 105 °F (2001)
Min Temperature 57 °F 67 °F 57 °F (2019)
Cooling Degree Days 4    
Growing Degree Days 20 (Base 50)    
Moisture  
Dew Point 53 °F    
Average Humidity 57    
Maximum Humidity 90    
Minimum Humidity 31    
Precipitation  
Precipitation 0.00 in - - ()
Sea Level Pressure  
Sea Level Pressure 30.23 in    
Wind  
Wind Speed 7 mph (NNE)    
Max Wind Speed 13 mph    
Max Gust Speed 17 mph    
Visibility 10 miles    
Events      
Averages and records for this station are not official NWS values.
T = Trace of Precipitation, MM = Missing Value Source: NWS Daily Summary

Daily Weather History Graph

Daily Weather History Graph

Search for Another Location

Airport or City:

Astronomy

Jul. 23, 2019 Rise Set
Actual Time 6:24 AM CDT 8:46 PM CDT
Civil Twilight 5:54 AM CDT 9:16 PM CDT
Nautical Twilight 5:17 AM CDT 9:53 PM CDT
Astronomical Twilight 4:36 AM CDT 10:33 PM CDT
Moon 12:13 AM CDT (7/23) 12:33 PM CDT (7/23)
Length of Visible Light 15h 21m
Length of Day
14h 22m
Waning Gibbous, 63% of the Moon is Illuminated
Jul 23
Waning Gibbous
Jul 24
Last Quarter
Jul 31
New
Aug 7
First Quarter
Aug 15
Full

Hourly Weather History & Observations

Time (CDT) Temp. Dew Point Humidity Pressure Visibility Wind Dir Wind Speed Gust Speed Precip Events Conditions
12:56 AM 63.0 °F 55.0 °F 75% 30.24 in 10.0 mi NNE 8.1 mph - N/A   Unknown
1:56 AM 62.1 °F 55.0 °F 78% 30.25 in 10.0 mi NNE 5.8 mph - N/A   Unknown
3:56 AM 57.9 °F 54.0 °F 87% 30.25 in 10.0 mi North 6.9 mph - N/A   Unknown
4:56 AM 57.0 °F 54.0 °F 89% 30.24 in 10.0 mi North 6.9 mph - N/A   Unknown
5:56 AM 57.0 °F 54.0 °F 89% 30.26 in 10.0 mi NNW 4.6 mph - N/A   Unknown
6:56 AM 57.9 °F 55.0 °F 90% 30.27 in 10.0 mi NNE 5.8 mph - N/A   Unknown
7:56 AM 64.0 °F 57.0 °F 78% 30.27 in 10.0 mi NE 6.9 mph - N/A   Unknown
8:56 AM 68.0 °F 57.0 °F 68% 30.29 in 10.0 mi Variable 4.6 mph - N/A   Unknown
9:56 AM 72.0 °F 55.0 °F 55% 30.29 in 10.0 mi NE 6.9 mph - N/A   Unknown
10:56 AM 73.0 °F 55.0 °F 53% 30.28 in 10.0 mi North 8.1 mph - N/A   Unknown
11:17 AM 73.4 °F 53.6 °F 50% 30.31 in 10.0 mi NNE 10.4 mph - N/A   Partly Cloudy
11:56 AM 75.9 °F 54.0 °F 46% 30.26 in 10.0 mi North 11.5 mph - N/A   Unknown
12:56 PM 77.0 °F 53.1 °F 43% 30.25 in 10.0 mi North 8.1 mph 17.3 mph N/A   Unknown
1:56 PM 79.0 °F 51.1 °F 38% 30.22 in 10.0 mi NNE 12.7 mph 17.3 mph N/A   Unknown
2:56 PM 80.1 °F 48.9 °F 34% 30.21 in 10.0 mi NNW 6.9 mph - N/A   Clear
3:17 PM 80.6 °F 50.0 °F 34% 30.24 in 10.0 mi NE 8.1 mph - N/A   Scattered Clouds
3:56 PM 82.0 °F 48.9 °F 31% 30.20 in 10.0 mi North 10.4 mph - N/A   Partly Cloudy
4:56 PM 81.0 °F 48.0 °F 31% 30.18 in 10.0 mi NNE 9.2 mph - N/A   Unknown
5:56 PM 81.0 °F 51.1 °F 35% 30.17 in 10.0 mi East 9.2 mph - N/A   Unknown
6:56 PM 79.0 °F 52.0 °F 39% 30.16 in 10.0 mi East 5.8 mph - N/A   Clear
7:56 PM 77.0 °F 51.1 °F 40% 30.16 in 10.0 mi Variable 4.6 mph - N/A   Unknown
8:56 PM 72.0 °F 54.0 °F 53% 30.17 in 10.0 mi East 3.5 mph - N/A   Unknown
9:56 PM 70.0 °F 54.0 °F 57% 30.18 in 10.0 mi Variable 3.5 mph - N/A   Unknown
10:56 PM 66.9 °F 55.0 °F 66% 30.19 in 10.0 mi East 5.8 mph - N/A   Unknown
11:56 PM 64.9 °F 55.9 °F 73% 30.19 in 10.0 mi East 5.8 mph - N/A   Unknown